Blytheville Muni Airport, AR

11:48 PM CDT on August 16, 2017 (GMT -0500)
Blytheville Municipal

Weather History for KHKA - December, 2012

Change the Weather History Date:

Friday, December 28, 2012

  Actual Average Record
Temperature  
Mean Temperature 35 °F -  
Max Temperature 37 °F 48 °F 68 °F (2015)
Min Temperature 33 °F 29 °F 17 °F (1933)
Degree Days  
Heating Degree Days 30    
Moisture  
Dew Point 34 °F    
Average Humidity 92    
Maximum Humidity 100    
Minimum Humidity 78    
Precipitation  
Precipitation 0.14 in - - ()
Sea Level Pressure  
Sea Level Pressure 29.94 in    
Wind  
Wind Speed 7 mph (ENE)    
Max Wind Speed 18 mph    
Max Gust Speed -    
Visibility 7 miles    
Events Rain    
Averages and records for this station are not official NWS values.
T = Trace of Precipitation, MM = Missing Value Source: NWS Daily Summary

Daily Weather History Graph

Daily Weather History Graph

Search for Another Location

Airport or City:

Trip Planner

Search our weather history database for the weather conditions in past years. The results will help you decide how hot, cold, wet, or windy it might be!

Date:

Astronomy

Dec. 28, 2012 Rise Set
Actual Time 7:08 AM CST 4:53 PM CST
Civil Twilight 6:40 AM CST 5:22 PM CST
Nautical Twilight 6:08 AM CST 5:54 PM CST
Astronomical Twilight 5:37 AM CST 6:25 PM CST
Moon 5:28 PM CST (12/28) 7:04 AM CST (12/28)
Length of Visible Light 10h 41m
Length of Day
9h 44m
Full, 100% of the Moon is Illuminated
Dec 28
Full
Jan 4
Last Quarter
Jan 11
New
Jan 18
First Quarter
Jan 26
Full

Hourly Weather History & Observations

Time (CST) Temp. Windchill Dew Point Humidity Pressure Visibility Wind Dir Wind Speed Gust Speed Precip Events Conditions
12:53 AM 34.0 °F 28.8 °F 28.9 °F 82% 30.08 in 10.0 mi ESE 5.8 mph - N/A   Overcast
1:53 AM 34.0 °F 31.0 °F 28.9 °F 82% 30.09 in 10.0 mi SE 3.5 mph - N/A   Overcast
2:53 AM 34.0 °F 31.0 °F 30.0 °F 85% 30.09 in 10.0 mi ESE 3.5 mph - N/A   Overcast
3:53 AM 35.1 °F 28.6 °F 28.9 °F 78% 30.07 in 10.0 mi SSE 8.1 mph - N/A   Overcast
4:53 AM 35.1 °F 27.9 °F 28.9 °F 78% 30.06 in 10.0 mi SSE 9.2 mph - 0.00 in   Overcast
5:53 AM 34.0 °F 27.2 °F 30.0 °F 85% 30.06 in 10.0 mi SSE 8.1 mph - N/A   Overcast
6:53 AM 35.1 °F 31.0 °F 30.9 °F 85% 30.06 in 10.0 mi SE 4.6 mph - N/A   Overcast
7:53 AM 35.1 °F 30.1 °F 32.0 °F 89% 30.05 in 10.0 mi SSE 5.8 mph - N/A   Overcast
8:53 AM 36.0 °F 28.5 °F 32.0 °F 86% 30.02 in 10.0 mi ESE 10.4 mph - N/A   Overcast
9:53 AM 37.0 °F 31.6 °F 34.0 °F 89% 30.01 in 10.0 mi SE 6.9 mph - N/A   Overcast
10:53 AM 37.9 °F 35.5 °F 35.1 °F 89% 30.00 in 8.0 mi East 3.5 mph - 0.00 in Rain Light Rain
11:11 AM 37.4 °F - 35.6 °F 93% 30.00 in 7.0 mi Calm Calm - 0.02 in Rain Light Rain
11:23 AM 37.4 °F - 35.6 °F 93% 29.99 in 6.0 mi Calm Calm - 0.04 in Rain Rain
11:51 AM 37.4 °F 32.8 °F 35.6 °F 93% 29.94 in 7.0 mi NE 5.8 mph - 0.05 in Rain Light Rain
11:53 AM 37.9 °F 33.5 °F 36.0 °F 93% 29.95 in 7.0 mi ENE 5.8 mph - 0.05 in Rain Light Rain
12:38 PM 37.4 °F 32.8 °F 35.6 °F 93% 29.92 in 7.0 mi East 5.8 mph - 0.01 in Rain Light Rain
12:53 PM 37.9 °F 33.5 °F 36.0 °F 93% 29.91 in 5.0 mi ENE 5.8 mph - 0.02 in Rain Light Rain
1:02 PM 37.4 °F 32.1 °F 35.6 °F 93% 29.90 in 5.0 mi ENE 6.9 mph - 0.00 in Rain Light Rain
1:53 PM 37.9 °F 33.5 °F 36.0 °F 93% 29.88 in 8.0 mi ENE 5.8 mph - 0.00 in Rain Light Rain
2:20 PM 37.4 °F 33.8 °F 37.4 °F 100% 29.88 in 2.5 mi ENE 4.6 mph - 0.00 in Rain Light Rain
2:36 PM 37.4 °F 30.8 °F 37.4 °F 100% 29.86 in 1.8 mi ENE 9.2 mph - 0.01 in Rain Light Rain
2:53 PM 37.9 °F 32.1 °F 37.0 °F 97% 29.86 in 1.8 mi ENE 8.1 mph - 0.01 in Rain Light Rain
3:09 PM 37.4 °F 30.8 °F 37.4 °F 100% 29.84 in 2.5 mi ENE 9.2 mph - 0.01 in Rain Light Rain
3:20 PM 37.4 °F 30.8 °F 37.4 °F 100% 29.83 in 4.0 mi ENE 9.2 mph - 0.01 in   Overcast
3:53 PM 37.9 °F 31.5 °F 37.0 °F 97% 29.82 in 6.0 mi ENE 9.2 mph - 0.01 in Rain Light Rain
4:53 PM 37.9 °F 33.5 °F 37.0 °F 97% 29.83 in 7.0 mi North 5.8 mph - 0.01 in Rain Light Rain
5:53 PM 37.9 °F 31.5 °F 37.0 °F 97% 29.85 in 4.0 mi North 9.2 mph - 0.03 in Rain Light Rain
6:02 PM 37.4 °F 29.8 °F 37.4 °F 100% 29.84 in 5.0 mi North 11.5 mph - 0.00 in Rain Light Rain
6:53 PM 36.0 °F 29.6 °F 35.1 °F 97% 29.85 in 7.0 mi North 8.1 mph - 0.01 in   Overcast
7:53 PM 35.1 °F 24.8 °F 34.0 °F 96% 29.87 in 3.0 mi NNW 17.3 mph - 0.00 in Rain Light Rain
8:48 PM 33.8 °F 22.8 °F 33.8 °F 100% 29.87 in 6.0 mi NNW 18.4 mph - 0.00 in   Overcast
8:53 PM 34.0 °F 23.4 °F 33.1 °F 96% 29.88 in 6.0 mi NNW 17.3 mph - 0.00 in   Overcast
9:53 PM 34.0 °F 24.2 °F 33.1 °F 96% 29.89 in 9.0 mi NNW 15.0 mph - 0.00 in   Overcast
10:53 PM 34.0 °F 25.0 °F 33.1 °F 96% 29.91 in 10.0 mi NW 12.7 mph - 0.00 in   Overcast
11:25 PM 35.6 °F 26.6 °F 33.8 °F 93% 29.92 in 10.0 mi NW 13.8 mph - N/A   Overcast
11:53 PM 35.1 °F 25.2 °F 33.1 °F 92% 29.94 in 10.0 mi NW 16.1 mph - N/A   Overcast